Location: Newark
(40.4333°N, 3.7000°W)
Time: 13:04:54
(UTC+00:00)

Envisat - Visible Passes

Search period start: 19 October 2019 00:00
Search period end: 29 October 2019 00:00
Orbit: 764 x 766 km, 98.1° (Epoch: 19 October)

Date Brightness Start Highest point End Pass type
(mag) Time Alt. Az. Time Alt. Az. Time Alt. Az.
19 Oct 3.0 18:07:13 10° SSE 18:12:15 69° ENE 18:17:19 10° N visible
19 Oct 6.1 19:49:22 10° WSW 19:51:44 13° W 19:54:09 10° WNW visible
20 Oct 5.0 19:10:13 10° SSW 19:14:38 30° W 19:19:06 10° NW visible
21 Oct 6.7 05:43:22 10° E 05:44:10 10° E 05:44:57 10° E visible
21 Oct 3.4 18:32:41 10° S 18:37:44 68° WSW 18:42:48 10° NNW visible
22 Oct 3.1 17:56:06 10° SSE 18:01:02 54° ENE 18:05:59 10° N visible
22 Oct 5.8 19:37:05 10° SW 19:40:21 17° W 19:43:38 10° NW visible
23 Oct 6.1 06:06:21 10° NE 06:09:57 19° E 06:13:34 10° SE visible
23 Oct 4.5 18:58:37 10° SSW 19:03:19 38° W 19:08:03 10° NNW visible
24 Oct 3.0 18:21:23 10° SSE 18:26:28 86° WSW 18:31:34 10° NNW visible
25 Oct 3.4 17:45:03 10° SE 17:49:48 43° ENE 17:54:36 10° N visible
25 Oct 5.5 19:25:07 10° SW 19:28:59 22° W 19:32:52 10° NW visible
26 Oct 6.2 05:55:42 10° NE 05:58:35 15° E 06:01:28 10° SE visible
26 Oct 4.0 18:47:06 10° S 18:52:00 48° W 18:56:55 10° NNW visible
27 Oct 2.9 18:10:09 10° SSE 18:15:13 75° ENE 18:20:18 10° N visible
27 Oct 6.2 19:52:52 10° WSW 19:54:46 12° W 19:56:39 10° WNW visible
28 Oct 5.1 19:13:21 10° SSW 19:17:38 27° W 19:21:58 10° NW visible
